Hourly Weather Chandigarh

Today, 16 June, Wednesday

Time Temperature Precipitation Wind Pressure Humidity
00:00 +32°C° 0.2 mm 2 mps 717 mmHg 46%
01:00 +31°C° 0.2 mm 3 mps 718 mmHg 52%
02:00 +29°C° 0.2 mm 4 mps 719 mmHg 58%
03:00 +29°C° 0.5 mm 4 mps 719 mmHg 63%
04:00 +28°C° 0.5 mm 4 mps 719 mmHg 67%
05:00 +28°C° 0.5 mm 3 mps 719 mmHg 72%
06:00 +28°C° 0.9 mm 3 mps 720 mmHg 70%
07:00 +29°C° 0.9 mm 3 mps 720 mmHg 68%
08:00 +29°C° 0.9 mm 2 mps 721 mmHg 65%
09:00 +30°C° 0.2 mm 2 mps 721 mmHg 62%
10:00 +31°C° 0.2 mm 2 mps 721 mmHg 58%
11:00 +31°C° 0.2 mm 1 mps 721 mmHg 54%
12:00 +31°C° 0.4 mm 2 mps 721 mmHg 57%
13:00 +30°C° 0.4 mm 3 mps 721 mmHg 59%
14:00 +30°C° 0.4 mm 3 mps 721 mmHg 61%
15:00 +31°C° 0 mm 3 mps 720 mmHg 55%
16:00 +33°C° 0 mm 3 mps 720 mmHg 49%
17:00 +35°C° 0 mm 2 mps 719 mmHg 43%
18:00 +32°C° 0 mm 2 mps 719 mmHg 47%
19:00 +31°C° 0 mm 2 mps 719 mmHg 52%
20:00 +30°C° 0 mm 2 mps 719 mmHg 56%
21:00 +29°C° 0 mm 2 mps 719 mmHg 56%
22:00 +29°C° 0 mm 2 mps 720 mmHg 57%
23:00 +28°C° 0 mm 2 mps 720 mmHg 57%

Tomorrow, 17 June, Thursday

Time Temperature Precipitation Wind Pressure Humidity
00:00 +28°C° 0 mm 2 mps 720 mmHg 57%
01:00 +28°C° 0 mm 2 mps 720 mmHg 56%
02:00 +28°C° 0 mm 2 mps 720 mmHg 56%
03:00 +28°C° 0 mm 2 mps 720 mmHg 58%
04:00 +28°C° 0 mm 2 mps 720 mmHg 61%
05:00 +27°C° 0 mm 2 mps 720 mmHg 63%
06:00 +29°C° 0 mm 2 mps 721 mmHg 58%
07:00 +31°C° 0 mm 2 mps 721 mmHg 53%
08:00 +34°C° 0 mm 2 mps 722 mmHg 47%
09:00 +36°C° 0 mm 2 mps 722 mmHg 41%
10:00 +38°C° 0 mm 2 mps 722 mmHg 35%
11:00 +39°C° 0 mm 2 mps 722 mmHg 29%
12:00 +40°C° 0 mm 2 mps 721 mmHg 26%
13:00 +41°C° 0 mm 2 mps 720 mmHg 23%
14:00 +42°C° 0 mm 2 mps 720 mmHg 20%
15:00 +42°C° 0 mm 2 mps 720 mmHg 21%
16:00 +41°C° 0 mm 2 mps 719 mmHg 21%
17:00 +41°C° 0 mm 2 mps 719 mmHg 21%
18:00 +39°C° 0 mm 3 mps 719 mmHg 27%
19:00 +37°C° 0 mm 3 mps 720 mmHg 33%
20:00 +35°C° 0 mm 4 mps 720 mmHg 39%
21:00 +34°C° 0 mm 4 mps 720 mmHg 42%
22:00 +34°C° 0 mm 4 mps 721 mmHg 45%
23:00 +33°C° 0 mm 4 mps 721 mmHg 48%

Day after tomorrow, 18 June, Friday

Time Temperature Precipitation Wind Pressure Humidity
00:00 +33°C° 0 mm 4 mps 721 mmHg 50%
01:00 +33°C° 0 mm 3 mps 721 mmHg 51%
02:00 +31°C° 0 mm 3 mps 721 mmHg 53%
03:00 +31°C° 0 mm 3 mps 721 mmHg 54%
04:00 +31°C° 0 mm 3 mps 721 mmHg 56%
05:00 +31°C° 0 mm 3 mps 721 mmHg 57%
06:00 +33°C° 0.1 mm 3 mps 721 mmHg 53%
07:00 +34°C° 0.1 mm 3 mps 721 mmHg 50%
08:00 +36°C° 0.1 mm 3 mps 722 mmHg 46%
09:00 +37°C° 0 mm 3 mps 721 mmHg 42%
10:00 +39°C° 0 mm 3 mps 721 mmHg 37%
11:00 +40°C° 0 mm 2 mps 721 mmHg 32%
12:00 +41°C° 0 mm 2 mps 721 mmHg 28%
13:00 +42°C° 0 mm 2 mps 720 mmHg 25%
14:00 +43°C° 0 mm 2 mps 719 mmHg 21%
15:00 +43°C° 0.1 mm 3 mps 719 mmHg 24%
16:00 +41°C° 0.1 mm 4 mps 719 mmHg 26%
17:00 +40°C° 0.1 mm 5 mps 719 mmHg 29%
18:00 +38°C° 0.1 mm 4 mps 719 mmHg 31%
19:00 +38°C° 0.1 mm 3 mps 720 mmHg 33%
20:00 +37°C° 0.1 mm 2 mps 720 mmHg 35%
21:00 +36°C° 0 mm 3 mps 720 mmHg 39%
22:00 +35°C° 0 mm 4 mps 721 mmHg 43%
23:00 +34°C° 0 mm 5 mps 721 mmHg 47%

19 June, Saturday

Time Temperature Precipitation Wind Pressure Humidity
00:00 +33°C° 0 mm 4 mps 721 mmHg 51%
01:00 +33°C° 0 mm 4 mps 721 mmHg 54%
02:00 +32°C° 0 mm 4 mps 721 mmHg 58%
03:00 +31°C° 0 mm 3 mps 721 mmHg 58%
04:00 +31°C° 0 mm 3 mps 721 mmHg 59%
05:00 +31°C° 0 mm 3 mps 721 mmHg 59%
06:00 +33°C° 0 mm 3 mps 721 mmHg 56%
07:00 +33°C° 0 mm 3 mps 722 mmHg 53%
08:00 +34°C° 0 mm 3 mps 722 mmHg 50%
09:00 +36°C° 0 mm 3 mps 722 mmHg 45%
10:00 +38°C° 0 mm 2 mps 722 mmHg 39%
11:00 +39°C° 0 mm 2 mps 722 mmHg 34%
12:00 +40°C° 0 mm 3 mps 721 mmHg 30%
13:00 +43°C° 0 mm 3 mps 720 mmHg 27%
14:00 +44°C° 0 mm 3 mps 719 mmHg 23%
15:00 +44°C° 0 mm 3 mps 719 mmHg 23%
16:00 +44°C° 0 mm 4 mps 719 mmHg 22%
17:00 +44°C° 0 mm 4 mps 718 mmHg 21%
18:00 +42°C° 0 mm 3 mps 719 mmHg 24%
19:00 +40°C° 0 mm 2 mps 719 mmHg 28%
20:00 +37°C° 0 mm 1 mps 719 mmHg 31%
21:00 +37°C° 0.1 mm 3 mps 720 mmHg 36%
22:00 +36°C° 0.1 mm 4 mps 720 mmHg 42%
23:00 +35°C° 0.1 mm 6 mps 721 mmHg 47%

20 June, Sunday

Time Temperature Precipitation Wind Pressure Humidity
00:00 +34°C° 0.1 mm 6 mps 721 mmHg 53%
01:00 +33°C° 0.1 mm 6 mps 721 mmHg 59%
02:00 +32°C° 0.1 mm 6 mps 721 mmHg 65%
03:00 +30°C° 0.2 mm 5 mps 721 mmHg 66%
04:00 +30°C° 0.2 mm 5 mps 721 mmHg 67%
05:00 +30°C° 0.2 mm 4 mps 721 mmHg 67%
06:00 +32°C° 0 mm 4 mps 721 mmHg 63%
07:00 +33°C° 0 mm 4 mps 722 mmHg 58%
08:00 +34°C° 0 mm 4 mps 722 mmHg 53%
09:00 +36°C° 0.1 mm 4 mps 722 mmHg 48%
10:00 +37°C° 0.1 mm 4 mps 722 mmHg 43%
11:00 +39°C° 0.1 mm 3 mps 721 mmHg 38%
12:00 +40°C° 0 mm 3 mps 721 mmHg 34%
13:00 +41°C° 0 mm 2 mps 720 mmHg 31%
14:00 +42°C° 0 mm 2 mps 719 mmHg 27%
15:00 +42°C° 0.1 mm 3 mps 719 mmHg 29%
16:00 +40°C° 0.1 mm 4 mps 718 mmHg 32%
17:00 +39°C° 0.1 mm 5 mps 718 mmHg 34%
18:00 +36°C° 0.7 mm 6 mps 719 mmHg 42%
19:00 +34°C° 0.7 mm 6 mps 720 mmHg 50%
20:00 +30°C° 0.7 mm 6 mps 720 mmHg 58%
21:00 +32°C° 0.1 mm 4 mps 720 mmHg 58%
22:00 +31°C° 0.1 mm 3 mps 721 mmHg 58%
23:00 +31°C° 0.1 mm 2 mps 721 mmHg 58%

21 June, Monday

Time Temperature Precipitation Wind Pressure Humidity
00:00 +31°C° 0 mm 2 mps 721 mmHg 58%
01:00 +31°C° 0 mm 1 mps 721 mmHg 57%
02:00 +31°C° 0 mm 1 mps 721 mmHg 57%
03:00 +31°C° 0.3 mm 2 mps 721 mmHg 61%
04:00 +30°C° 0.3 mm 2 mps 721 mmHg 65%
05:00 +29°C° 0.3 mm 3 mps 721 mmHg 68%
06:00 +31°C° 0 mm 3 mps 721 mmHg 63%
07:00 +33°C° 0 mm 3 mps 722 mmHg 57%
08:00 +34°C° 0 mm 3 mps 722 mmHg 52%
09:00 +36°C° 0 mm 3 mps 722 mmHg 48%
10:00 +37°C° 0 mm 3 mps 722 mmHg 44%
11:00 +39°C° 0 mm 3 mps 722 mmHg 40%
12:00 +39°C° 0 mm 2 mps 721 mmHg 37%
13:00 +39°C° 0 mm 2 mps 721 mmHg 35%
14:00 +40°C° 0 mm 1 mps 720 mmHg 33%
15:00 +40°C° 0 mm 2 mps 720 mmHg 32%
16:00 +40°C° 0 mm 2 mps 720 mmHg 32%
17:00 +40°C° 0 mm 2 mps 719 mmHg 31%
18:00 +39°C° 0 mm 2 mps 719 mmHg 34%
19:00 +38°C° 0 mm 2 mps 720 mmHg 36%
20:00 +36°C° 0 mm 2 mps 720 mmHg 39%
21:00 +36°C° 0 mm 2 mps 720 mmHg 40%
22:00 +36°C° 0 mm 2 mps 720 mmHg 42%
23:00 +35°C° 0 mm 3 mps 721 mmHg 43%
Show more

We Need Your Consent

Meteoprog and our Service Providers may store and access personal data such as cookies, device identifiers or other similar technologies on your device and process such data to personalise content and ads, as well as provide social media features and to analyse the traffic.

  • Store and/or access information on your device

    Cookies, device identifiers or other information can be stored or accessed on your device for the purposes indicated above.

  • Personalised ads and content, ad and content measurement, audience insights, and products development

    Ads and content can be personalised based on a profile. More data can be added to better personalise ads and content. Ad and content performance can be measured. Insights about the audience who saw the ads and content can be derived. Such data can be used to develop or improve user’s experience, systems and software.

By clicking ‘I Agree’ you will allow the use of indicated cookies, device identifiers, web beacons or other similar technologies. Your settings can be changed in the browser on your device.

For certain purposes, legitimate interests may be relied on, rather than consent. You can read more about this in our Privacy and Cookie Policy.